T 1996 Sept. 23.57573 TT Marsden q 0.0014947 (2000.0) P Q Peri. 85.73007 -0.00307034 -0.99842304 Node 354.51614 -0.97682409 +0.01499129 e 1.0 Incl. 144.08762 +0.21402167 +0.05409897 >From 25 observations 1996 Sept.22-23.